JA0QEV-13 Weather Reports


time (UTC)temp
C
wind
direction
speed
KPH
gust
KPH
rain 1hr
cm
rain 24hr
cm
rain mn
cm
humidity
%
barometer
mb
20260509174328 8 86 0.0 1.6 0.00 0.10 0.00 86 1017.8
20260509173817 8 85 0.0 3.2 0.00 0.10 0.00 86 1017.9
20260509173328 8 74 0.0 3.2 0.00 0.10 0.00 85 1017.8
20260509172819 8 76 0.0 3.2 0.00 0.10 0.00 84 1017.7
20260509172330 8 74 1.6 3.2 0.00 0.10 0.00 83 1017.7
20260509171819 9 269 0.0 3.2 0.00 0.10 0.00 83 1017.7
20260509171326 8 274 1.6 3.2 0.00 0.10 0.00 83 1017.7
20260509170835 8 280 0.0 3.2 0.00 0.10 0.00 83 1017.6
20260509170326 8 294 0.0 3.2 0.00 0.10 0.00 84 1017.5
20260509165832 8 159 0.0 4.8 0.00 0.10 0.00 85 1017.6
20260509165323 8 243 0.0 4.8 0.00 0.10 0.00 86 1017.6
20260509164833 8 239 1.6 3.2 0.00 0.10 0.00 87 1017.7
20260509164324 8 160 0.0 1.6 0.00 0.10 0.00 87 1017.7
20260509163833 8 171 0.0 1.6 0.00 0.10 0.00 87 1017.7
20260509163344 8 114 0.0 0.0 0.00 0.10 0.00 86 1017.7
20260509162830 8 89 0.0 0.0 0.00 0.10 0.00 85 1017.7
20260509162326 8 84 0.0 0.0 0.00 0.10 0.00 85 1017.6
20260509161856 8 84 0.0 1.6 0.00 0.10 0.00 85 1017.5
20260509161325 9 84 0.0 1.6 0.00 0.10 0.00 84 1017.6
20260509160834 9 83 0.0 1.6 0.00 0.10 0.00 84 1017.7
20260509160325 9 84 0.0 3.2 0.00 0.10 0.00 83 1017.6
20260509155831 9 59 0.0 3.2 0.00 0.10 0.00 83 1017.6
20260509155323 10 229 1.6 3.2 0.00 0.10 0.00 82 1017.7
20260509154833 10 231 0.0 3.2 0.00 0.10 0.00 81 1017.7
20260509154343 10 138 0.0 1.6 0.00 0.10 0.00 80 1017.7
20260509153852 10 138 0.0 4.8 0.00 0.10 0.00 80 1017.6
20260509153322 10 191 0.0 8.0 0.00 0.10 0.00 80 1017.6
20260509152832 10 221 1.6 9.7 0.00 0.10 0.00 79 1017.5
20260509152323 10 229 4.8 12.9 0.00 0.10 0.00 79 1017.4
20260509151834 10 227 4.8 9.7 0.00 0.10 0.00 80 1017.4
20260509151325 10 203 3.2 8.0 0.00 0.10 0.00 80 1017.4
20260509150836 10 198 3.2 8.0 0.00 0.10 0.00 80 1017.4
20260509150326 10 208 3.2 8.0 0.00 0.10 0.00 80 1017.4
20260509145830 10 203 1.6 6.4 0.00 0.10 0.10 80 1017.5
20260509145341 10 189 1.6 6.4 0.00 0.10 0.10 80 1017.6
20260509144850 10 176 0.0 6.4 0.00 0.10 0.10 80 1017.6
20260509144319 10 187 3.2 6.4 0.00 0.10 0.10 80 1017.6
20260509143850 10 198 1.6 6.4 0.00 0.10 0.10 80 1017.6
20260509143338 10 174 1.6 4.8 0.00 0.10 0.10 81 1017.6
20260509142828 10 183 0.0 3.2 0.00 0.10 0.10 81 1017.6
20260509142319 10 195 1.6 3.2 0.00 0.10 0.10 81 1017.6
20260509141850 10 191 0.0 4.8 0.00 0.10 0.10 81 1017.5
20260509141318 10 226 1.6 4.8 0.00 0.10 0.10 80 1017.5
20260509140827 11 255 0.0 3.2 0.00 0.10 0.10 80 1017.4
20260509140338 11 198 0.0 4.8 0.00 0.10 0.10 80 1017.5
20260509135825 11 198 1.6 4.8 0.00 0.10 0.10 80 1017.5
20260509135334 11 176 1.6 6.4 0.00 0.10 0.10 80 1017.5
20260509134844 11 205 3.2 6.4 0.00 0.10 0.10 80 1017.4
20260509134334 11 174 1.6 6.4 0.00 0.10 0.10 80 1017.4
20260509133825 11 200 1.6 4.8 0.00 0.10 0.10 81 1017.3
20260509133335 11 156 0.0 1.6 0.00 0.10 0.10 80 1017.4
20260509132826 11 153 0.0 4.8 0.00 0.10 0.10 80 1017.4
20260509132356 11 200 3.2 4.8 0.00 0.10 0.10 80 1017.3
20260509131826 11 158 0.0 1.6 0.00 0.10 0.10 80 1017.4
20260509131336 11 157 0.0 3.2 0.00 0.10 0.10 80 1017.2
20260509130826 11 208 1.6 4.8 0.00 0.10 0.10 80 1017.2
20260509130317 11 205 0.0 4.8 0.00 0.10 0.10 80 1017.2
20260509125823 11 224 1.6 3.2 0.00 0.10 0.10 79 1017.3
20260509125354 11 125 0.0 0.0 0.00 0.10 0.10 79 1017.2
20260509124825 11 154 0.0 1.6 0.00 0.10 0.10 78 1017.2
20260509124334 11 172 0.0 1.6 0.00 0.10 0.10 77 1017.1
20260509123844 12 103 0.0 4.8 0.00 0.10 0.10 77 1017.1
20260509123354 12 169 0.0 4.8 0.00 0.10 0.10 77 1017.0
20260509122857 11 144 0.0 4.8 0.00 0.10 0.10 78 1017.0
20260509122323 12 184 0.0 4.8 0.00 0.10 0.10 77 1016.9
20260509121817 12 198 0.0 3.2 0.00 0.10 0.10 77 1017.0
20260509121327 12 200 1.6 3.2 0.00 0.10 0.10 76 1016.7
20260509120817 12 165 0.0 1.6 0.00 0.10 0.10 74 1016.9
20260509120328 12 165 0.0 1.6 0.00 0.10 0.10 74 1016.7
20260509115834 13 165 0.0 1.6 0.00 0.10 0.10 73 1016.7
20260509115324 13 181 0.0 8.0 0.00 0.10 0.10 73 1016.6
20260509114833 13 221 4.8 8.0 0.00 0.10 0.10 74 1016.7
20260509114325 13 271 3.2 4.8 0.00 0.10 0.10 74 1016.6
20260509113834 13 4 1.6 3.2 0.00 0.10 0.10 73 1016.4
20260509113323 14 155 0.0 1.6 0.00 0.10 0.10 68 1016.3
20260509112835 14 120 0.0 1.6 0.00 0.10 0.10 67 1016.4
20260509112325 14 130 0.0 3.2 0.00 0.10 0.10 66 1016.2
20260509111833 15 129 0.0 3.2 0.00 0.10 0.10 65 1016.2
20260509111322 15 119 0.0 6.4 0.00 0.10 0.10 65 1016.2
20260509110833 15 103 1.6 6.4 0.00 0.10 0.10 65 1016.1
20260509110344 15 101 1.6 11.3 0.00 0.10 0.10 65 1016.2
20260509105830 15 99 3.2 14.5 0.00 0.10 0.10 65 1016.1
20260509105320 15 110 6.4 16.1 0.00 0.10 0.10 64 1015.9
20260509104831 15 82 9.7 16.1 0.00 0.10 0.10 64 1015.9
20260509104321 15 103 6.4 14.5 0.00 0.10 0.10 64 1015.9
20260509103852 15 117 6.4 14.5 0.00 0.10 0.10 63 1015.9
20260509103326 15 110 8.0 12.9 0.00 0.10 0.10 63 1015.7
20260509102831 15 119 4.8 12.9 0.00 0.10 0.10 64 1015.6
20260509102342 15 117 4.8 16.1 0.00 0.10 0.10 63 1015.6
20260509101850 15 101 9.7 16.1 0.00 0.10 0.10 61 1015.5
20260509101320 15 98 3.2 12.9 0.00 0.10 0.10 60 1015.5
20260509100829 15 89 4.8 14.5 0.00 0.10 0.10 60 1015.5
20260509100318 15 135 8.0 14.5 0.00 0.10 0.10 59 1015.3
20260509095824 16 98 8.0 19.3 0.00 0.18 0.10 60 1015.4
20260509095335 16 108 8.0 24.1 0.00 0.18 0.10 61 1015.3
20260509094826 16 91 8.0 19.3 0.00 0.18 0.10 61 1015.1
20260509094317 16 95 8.0 19.3 0.00 0.18 0.10 62 1015.1
20260509093827 16 92 9.7 20.9 0.00 0.18 0.10 61 1015.1
20260509093322 16 92 12.9 22.5 0.00 0.18 0.10 60 1015.1
20260509092826 16 95 12.9 25.7 0.00 0.18 0.10 60 1015.0
20260509092317 16 103 9.7 25.7 0.00 0.18 0.10 61 1015.0
20260509091827 16 84 12.9 20.9 0.00 0.18 0.10 61 1014.9
20260509091318 16 94 11.3 22.5 0.00 0.18 0.10 62 1014.9
20260509090829 16 129 14.5 22.5 0.00 0.18 0.10 61 1014.9
20260509090338 16 115 11.3 27.4 0.00 0.18 0.10 60 1014.7
20260509085844 17 103 16.1 29.0 0.00 0.36 0.10 60 1014.8
20260509085334 17 79 16.1 29.0 0.00 0.36 0.10 59 1014.6
20260509084825 17 94 16.1 30.6 0.00 0.36 0.10 59 1014.5
20260509084336 17 112 12.9 27.4 0.00 0.36 0.10 60 1014.3
20260509083825 17 107 16.1 25.7 0.00 0.36 0.10 59 1014.4
20260509083320 17 79 16.1 37.0 0.00 0.36 0.10 58 1014.3
20260509082826 17 102 16.1 37.0 0.00 0.36 0.10 58 1014.2
20260509082335 17 85 20.9 37.0 0.00 0.36 0.10 57 1014.1
20260509081825 17 102 22.5 37.0 0.00 0.36 0.10 57 1014.0
20260509081334 17 115 16.1 29.0 0.00 0.36 0.10 57 1013.9
20260509080824 17 93 19.3 29.0 0.00 0.36 0.10 56 1013.9
20260509080335 17 68 16.1 29.0 0.00 0.36 0.10 56 1013.8
20260509075819 17 71 17.7 30.6 0.00 0.58 0.10 54 1013.8
20260509075330 17 101 20.9 30.6 0.00 0.58 0.10 54 1013.6
20260509074819 18 91 14.5 29.0 0.00 0.58 0.10 54 1013.6
20260509074328 18 172 14.5 29.0 0.00 0.58 0.10 53 1013.5
20260509073819 18 125 16.1 29.0 0.00 0.58 0.10 52 1013.4
20260509073330 18 98 17.7 29.0 0.00 0.58 0.10 51 1013.4
20260509072819 18 122 11.3 24.1 0.00 0.58 0.10 50 1013.4
20260509072330 18 85 11.3 33.8 0.00 0.58 0.10 52 1013.2
20260509071820 18 113 12.9 32.2 0.00 0.58 0.10 52 1013.1
20260509071329 18 96 14.5 30.6 0.00 0.58 0.10 51 1013.1
20260509070819 18 112 16.1 32.2 0.00 0.58 0.10 49 1013.1
20260509070350 18 84 19.3 32.2 0.00 0.58 0.10 49 1013.2
20260509065834 18 71 20.9 33.8 0.00 0.58 0.10 48 1013.1
20260509065325 18 88 22.5 33.8 0.00 0.58 0.10 47 1013.0
20260509064834 18 98 12.9 29.0 0.00 0.58 0.10 50 1013.0
20260509064324 18 118 17.7 30.6 0.00 0.58 0.10 47 1013.0
20260509063835 18 89 16.1 30.6 0.00 0.58 0.10 43 1013.0
20260509063326 18 109 12.9 30.6 0.00 0.58 0.10 46 1012.9
20260509062831 18 88 16.1 37.0 0.00 0.58 0.10 45 1013.0
20260509062326 18 86 16.1 38.6 0.00 0.58 0.10 44 1013.1
20260509061836 18 63 14.5 30.6 0.00 0.58 0.10 45 1013.0
20260509061327 18 90 16.1 30.6 0.00 0.58 0.10 45 1012.9
20260509060818 18 97 14.5 29.0 0.00 0.58 0.10 45 1012.9
20260509060349 18 98 17.7 29.0 0.00 0.58 0.10 45 1013.0
20260509055835 19 58 16.1 35.4 0.00 0.58 0.10 44 1012.8
20260509055325 19 96 27.4 35.4 0.00 0.58 0.10 41 1012.8
20260509054835 19 125 17.7 27.4 0.00 0.58 0.10 42 1013.0
20260509054326 19 94 16.1 33.8 0.00 0.58 0.10 45 1012.9
20260509053821 18 89 16.1 38.6 0.00 0.58 0.10 43 1013.1
20260509053332 18 90 16.1 38.6 0.00 0.58 0.10 42 1013.0
20260509052858 18 124 16.1 35.4 0.00 0.58 0.10 44 1013.0
20260509052326 19 89 20.9 33.8 0.00 0.58 0.10 42 1013.1
20260509051855 19 126 17.7 33.8 0.00 0.58 0.10 42 1012.9
20260509051345 19 114 17.7 32.2 0.00 0.58 0.10 42 1013.0
20260509050832 19 109 14.5 33.8 0.00 0.58 0.10 45 1013.1
20260509050322 19 78 14.5 33.8 0.00 0.58 0.10 44 1013.1
20260509045827 19 107 14.5 30.6 0.00 0.58 0.10 48 1013.1
20260509045318 18 103 16.1 33.8 0.00 0.58 0.10 45 1013.1
20260509044827 18 110 17.7 37.0 0.00 0.58 0.10 45 1013.2
20260509044337 18 105 17.7 37.0 0.00 0.58 0.10 44 1013.2
20260509043828 18 114 14.5 29.0 0.00 0.58 0.10 48 1013.3
20260509043336 18 115 14.5 32.2 0.00 0.58 0.10 48 1013.3
20260509042824 18 89 22.5 32.2 0.00 0.58 0.10 45 1013.4
20260509042319 18 103 17.7 35.4 0.00 0.58 0.10 47 1013.3
20260509041830 18 101 20.9 35.4 0.00 0.58 0.10 46 1013.4
20260509041319 18 71 22.5 35.4 0.00 0.58 0.10 45 1013.4
20260509040828 18 70 12.9 27.4 0.00 0.58 0.10 47 1013.4
20260509040336 18 93 16.1 35.4 0.00 0.58 0.10 46 1013.4
20260509035844 18 86 22.5 33.8 0.00 0.58 0.10 49 1013.4
20260509035355 18 153 12.9 29.0 0.00 0.58 0.10 50 1013.4
20260509034823 18 77 11.3 29.0 0.00 0.58 0.10 48 1013.4
20260509034331 18 91 16.1 29.0 0.00 0.58 0.10 51 1013.5
20260509033821 18 106 16.1 29.0 0.00 0.58 0.10 49 1013.5
20260509033331 18 108 12.9 29.0 0.00 0.58 0.10 52 1013.5
20260509032835 18 84 16.1 29.0 0.00 0.58 0.10 54 1013.5
20260509032326 17 90 16.1 30.6 0.00 0.58 0.10 51 1013.6
20260509031836 17 95 17.7 30.6 0.00 0.58 0.10 55 1013.7
20260509031331 17 120 17.7 41.8 0.00 0.58 0.10 54 1013.7
20260509030841 17 82 22.5 41.8 0.00 0.58 0.10 53 1013.8
20260509030330 17 91 20.9 35.4 0.00 0.58 0.10 55 1013.7
20260509025835 17 92 22.5 35.4 0.00 0.58 0.10 53 1013.7
20260509025326 17 108 19.3 33.8 0.00 0.58 0.10 55 1013.6
20260509024817 17 184 22.5 35.4 0.00 0.58 0.10 54 1013.6
20260509024328 17 115 20.9 35.4 0.00 0.58 0.10 54 1013.5
20260509023819 17 140 16.1 40.2 0.00 0.58 0.10 56 1013.7
20260509023328 17 60 20.9 86.9 0.00 0.58 0.10 56 1013.7
20260509022835 17 112 9.7 86.9 0.00 0.58 0.10 57 1013.6
20260509022330 17 91 24.1 38.6 0.00 0.58 0.10 55 1013.7
20260509021840 16 83 19.3 30.6 0.00 0.58 0.10 57 1013.7
20260509021329 16 85 19.3 32.2 0.00 0.58 0.10 54 1013.7
20260509020818 16 80 16.1 32.2 0.00 0.58 0.10 57 1014.0
20260509020327 16 79 20.9 38.6 0.00 0.58 0.10 55 1013.9
20260509015854 16 81 17.7 38.6 0.00 0.58 0.10 58 1013.8
20260509015321 16 139 20.9 38.6 0.00 0.58 0.10 58 1013.8
20260509014851 16 114 20.9 35.4 0.00 0.58 0.10 58 1013.8
20260509014341 16 85 25.7 35.4 0.00 0.58 0.10 58 1013.9
20260509013831 16 110 20.9 32.2 0.00 0.58 0.10 59 1013.8
20260509013322 16 93 16.1 35.4 0.00 0.58 0.10 62 1013.9
20260509012829 16 97 20.9 32.2 0.00 0.58 0.10 61 1013.9
20260509012320 16 108 9.7 30.6 0.00 0.58 0.10 63 1014.0
20260509011831 15 105 19.3 40.2 0.00 0.58 0.10 64 1014.1
20260509011326 15 117 20.9 35.4 0.00 0.58 0.10 65 1014.2
20260509010817 15 120 17.7 29.0 0.00 0.58 0.10 65 1014.0
20260509010325 15 126 16.1 38.6 0.00 0.58 0.10 64 1014.1
20260509005850 15 107 12.9 33.8 0.00 0.58 0.10 64 1014.0
20260509005320 15 86 22.5 33.8 0.00 0.58 0.10 64 1014.0
20260509004830 15 90 16.1 35.4 0.00 0.58 0.10 66 1013.9
20260509004319 15 97 19.3 35.4 0.00 0.58 0.10 64 1013.8
20260509003829 15 117 19.3 35.4 0.00 0.58 0.10 65 1013.7
20260509003318 15 82 16.1 29.0 0.00 0.58 0.10 66 1013.7
20260509002825 15 63 11.3 24.1 0.00 0.58 0.10 67 1013.6
20260509002356 15 105 9.7 29.0 0.00 0.58 0.10 68 1013.6
20260509001826 14 105 12.9 29.0 0.00 0.58 0.10 68 1013.7
20260509001317 14 86 16.1 25.7 0.00 0.58 0.10 67 1013.6
20260509000832 14 94 8.0 25.7 0.00 0.58 0.10 72 1013.7
20260509000323 13 106 8.0 27.4 0.00 0.58 0.10 72 1013.7
20260508235830 13 89 16.1 27.4 0.00 0.58 0.10 72 1013.7
20260508235340 13 96 8.0 24.1 0.00 0.58 0.10 75 1013.7
20260508234828 13 89 9.7 20.9 0.00 0.58 0.10 76 1013.8
20260508234319 13 84 11.3 20.9 0.00 0.58 0.10 77 1013.7
20260508233828 13 101 9.7 20.9 0.00 0.58 0.10 78 1013.7
20260508233317 13 96 14.5 22.5 0.00 0.58 0.10 77 1013.7
20260508232825 13 118 12.9 22.5 0.00 0.58 0.10 77 1013.8
20260508232335 13 162 1.6 19.3 0.00 0.58 0.10 77 1013.7
20260508231824 12 105 3.2 22.5 0.00 0.58 0.10 77 1013.7
20260508231318 12 100 6.4 29.0 0.00 0.58 0.10 77 1013.7
20260508230829 12 107 14.5 22.5 0.00 0.58 0.10 78 1013.8
20260508230318 12 183 6.4 14.5 0.00 0.58 0.10 79 1013.8
20260508225825 12 192 3.2 20.9 0.00 0.58 0.10 79 1013.6
20260508225355 12 88 8.0 27.4 0.00 0.58 0.10 78 1013.6
20260508224825 12 120 9.7 29.0 0.00 0.58 0.10 78 1013.6
20260508224335 12 104 11.3 29.0 0.00 0.58 0.10 78 1013.8
20260508223826 12 127 8.0 24.1 0.03 0.58 0.10 79 1013.7
20260508223317 12 79 9.7 32.2 0.05 0.58 0.10 79 1013.6
20260508222843 12 160 4.8 32.2 0.10 0.58 0.10 80 1013.4
20260508222337 12 108 14.5 35.4 0.10 0.58 0.10 80 1013.4
20260508221827 12 124 9.7 27.4 0.10 0.58 0.10 81 1013.1
20260508221318 12 89 11.3 38.6 0.10 0.58 0.10 81 1012.9
20260508220829 12 95 22.5 38.6 0.10 0.58 0.10 81 1012.9
20260508220339 12 179 19.3 41.8 0.10 0.58 0.10 85 1012.8
20260508215825 11 82 12.9 41.8 0.10 0.58 0.10 86 1012.4
20260508215334 11 120 14.5 33.8 0.10 0.58 0.10 88 1012.2
20260508214824 11 104 17.7 46.7 0.10 0.58 0.10 89 1012.0
20260508214335 11 80 19.3 64.4 0.10 0.58 0.10 90 1011.6
20260508213826 11 101 33.8 64.4 0.08 0.56 0.08 89 1011.5
20260508213334 11 100 29.0 46.7 0.05 0.53 0.05 86 1011.0
20260508212844 12 82 30.6 57.9 0.00 0.48 0.00 82 1010.8
20260508212355 12 116 32.2 57.9 0.00 0.48 0.00 78 1010.5
20260508211824 13 86 22.5 38.6 0.00 0.48 0.00 75 1010.4
20260508211336 13 87 24.1 38.6 0.00 0.48 0.00 74 1010.0
20260508210826 13 84 19.3 37.0 0.00 0.48 0.00 73 1009.9
20260508210316 12 82 20.9 37.0 0.00 0.48 0.00 73 1009.6
20260508205822 12 82 20.9 35.4 0.00 0.48 0.00 73 1009.5
20260508205333 12 79 17.7 43.5 0.00 0.48 0.00 73 1009.4
20260508204824 12 97 24.1 43.5 0.00 0.48 0.00 73 1009.0
20260508204333 12 64 22.5 40.2 0.00 0.48 0.00 73 1009.1
20260508203821 12 79 17.7 40.2 0.00 0.48 0.00 73 1009.0
20260508203330 12 81 16.1 41.8 0.00 0.48 0.00 72 1008.9
20260508202822 12 84 17.7 41.8 0.00 0.48 0.00 71 1008.7
20260508202333 13 55 20.9 38.6 0.00 0.48 0.00 69 1008.5
20260508201824 13 84 20.9 41.8 0.00 0.48 0.00 68 1008.3
20260508201332 13 98 24.1 48.3 0.00 0.48 0.00 68 1008.2
20260508200824 13 77 25.7 48.3 0.00 0.48 0.00 68 1008.2
20260508195818 13 80 29.0 51.5 0.00 0.48 0.00 66 1007.8
20260508195329 13 90 25.7 40.2 0.00 0.48 0.00 64 1007.7
20260508194820 13 34 16.1 43.5 0.00 0.48 0.00 64 1007.4
20260508194331 13 91 20.9 43.5 0.00 0.48 0.00 63 1007.4
20260508193842 13 95 19.3 59.5 0.00 0.48 0.00 63 1007.1
20260508193336 13 109 16.1 30.6 0.00 0.48 0.00 64 1007.0
20260508192822 13 105 11.3 38.6 0.00 0.48 0.00 64 1006.9
20260508192333 13 101 19.3 48.3 0.00 0.48 0.00 64 1006.8
20260508191824 13 117 25.7 48.3 0.00 0.48 0.00 64 1006.6
20260508191335 13 98 17.7 37.0 0.00 0.48 0.00 65 1006.4
20260508190826 13 101 17.7 45.1 0.00 0.48 0.00 65 1006.2
20260508190337 13 81 25.7 45.1 0.00 0.48 0.00 64 1006.3
20260508185819 13 120 24.1 43.5 0.00 0.48 0.00 64 1006.3
20260508185330 13 108 14.5 35.4 0.00 0.48 0.00 65 1006.0
20260508184825 13 82 24.1 38.6 0.00 0.48 0.00 64 1006.0
20260508184354 13 94 22.5 38.6 0.00 0.48 0.00 64 1006.0
20260508183824 13 82 24.1 37.0 0.00 0.48 0.00 63 1006.0
20260508183334 13 116 17.7 29.0 0.00 0.48 0.00 65 1005.9
20260508182842 13 124 16.1 32.2 0.00 0.48 0.00 65 1005.8
20260508182327 13 97 17.7 35.4 0.00 0.48 0.00 65 1005.6
20260508181818 13 110 22.5 35.4 0.00 0.48 0.00 64 1005.7
20260508181349 13 106 20.9 35.4 0.00 0.48 0.00 66 1005.6
20260508180838 13 92 20.9 38.6 0.00 0.48 0.00 66 1005.3
20260508180328 12 84 25.7 45.1 0.00 0.48 0.00 66 1005.4
20260508175835 12 80 24.1 41.8 0.00 0.48 0.00 67 1005.2
20260508175324 12 96 22.5 41.8 0.00 0.48 0.00 68 1005.4
20260508174834 12 112 25.7 53.1 0.00 0.48 0.00 67 1005.2